Weather in Oktyabrskoye

Russia / Penza Oblast     52°52′12″N   46°29′23″E
temp.,
°C
wind,
m/s
gust,
m/s
humid.,
%
clouds,
%
prec.,
mm/h
press.,
hPa
HPBL,
m
1 march, mon
mon100:00−18nnw349682 0.0 101966
03:00−19nw349841 0.0 102154
06:00−19nw34980 0.0 102339
09:00−16nw47950 0.0 1024195
12:00−12wnw359262 0.0 1024313
15:00−10wnw479279 0.0 1024413
18:00−13wnw449685 0.0 102379
21:00−15w479661 0.0 1023102
2 march, tue
tue200:00−12wsw5109692 0.0 1021242
03:00−8wsw7149496 0.1 1018452
06:00−5wsw81592100 0.4 1014527
09:00−3wsw81494100 1.1 1012647
12:00−1wsw81493100 0.3 1008729
15:000wsw91597100 1.1 1006842
18:000wnw71297100 1.4 1004689
21:00−3wnw499493 1.7 1005185
3 march, wed
wed300:00−4nw489686 0.2 1005209
03:00−6wnw489693 0.3 1006172
06:00−8wnw479778 0.1 1006128
09:00−6nw599684 0.1 1007291
12:00−3nw589096 0.1 1007684
15:00−4nw798698 0.3 1008877
18:00−7nw6129399 0.1 1010487
21:00−7nw61290100 0.2 1013706
4 march, thu
thu400:00−11wnw5109583 0.0 1012204
03:00−10w5119678 0.1 1012217
06:00−8w6129492 0.1 1012329
09:00−4wsw7129296 0.2 1011798
12:00−3wsw81391100 0.2 1009932
15:00−1wsw91487100 0.3 1007896
18:00−1wsw101789100 0.0 1004835
21:00−1wsw101886100 0.0 1003897
5 march, fri
fri500:00−2wsw9188440 0.0 1002775
03:00−2wsw9179064 0.0 1002677
06:00−1w7139599 0.2 1005775
09:00−2nnw369299 0.6 1007511
12:00−2nw238493 0.0 1009545
15:00−2nw238392 0.0 1011549
18:00−5nw238799 0.0 101321
21:00−7n2288100 0.0 101421